Location: Atbuku
(36.4936°N, 30.4362°E)
Time: 04:56:37
(UTC+00:00)

IRIDIUM 114 - Pass Details

Date: 11 December 2025
Orbit: 776 x 779 km, 86.4° (Epoch: 13 January)

Event Time Altitude Azimuth Distance (km) Brightness Sun altitude
Rises 15:08:35 0° 1° (N) 3,266 7.3 -5.4°
Reaches altitude 10° 15:10:58 10° 5° (N) 2,334 6.5 -5.9°
Maximum altitude 15:16:08 62° 86° (E) 873 4.4 -6.8°
Drops below altitude 10° 15:21:16 10° 167° (SSE) 2,317 6.9 -7.8°
Sets 15:23:38 0° 171° (S) 3,240 7.7 -8.2°
